Flag for France Weather past 2 weeks in Nantes, France

Now
66 °F

Scattered clouds.


Feels Like: 66 °F
Forecast: 49 / 70 °F
Wind: 8 mph from Northwest

Location: Nantes Airport

Current Time: Aug 23, 2014 at 2:23:56 PM

Latest Report: Aug 23, 2014 at 1:30 PM


Visibility: N/A

Pressure: 30.09 "Hg

Humidity: 49%

Dew point: 46 °F

Location of NantesLocation

Historic Weather in Nantes — Graph

°F

Nantes temperature yesterday

Maximum temperature yesterday: 68 °F (at 2:00 PM)
Minimum temperature yesterday: 46 °F (at 4:00 AM)
Average temperature yesterday: 57 °F

Past Weeks' High & Low Weather Summary

 TemperatureHumidityPressure
High77 °F (Aug 9, 5:00 PM)100% (Aug 9, 3:00 AM)30.27 "Hg (Aug 9, 3:00 AM)
Low45 °F (Aug 21, 6:00 AM)40% (Aug 20, 3:00 PM)29.65 "Hg (Aug 10, 7:00 AM)
Average61 °F78%29.99 "Hg
* Reported Aug 8 1:00 PM — Aug 23 1:00 PM, Nantes, Weather by CustomWeather, © 2014

Note: Actual official high and low records may vary slightly from our data, if they occured in-between our weather recording intervals... More about our weather records

Advertising

Nantes weather history for previous 24 hours

 ConditionsComfort  
Time TempWeatherWind HumidityBarometerVisibility
1:00 PM
Aug 23
66 °FScattered clouds.8 mph49%30.09 "HgN/A
12:30 PM64 °FPartly sunny.6 mph56%30.09 "HgN/A
12:00 PM64 °FPartly sunny.5 mph60%30.09 "HgN/A
11:30 AM64 °FPartly sunny.5 mph64%30.09 "HgN/A
11:00 AM63 °FScattered clouds.3 mph64%30.09 "HgN/A
10:30 AM63 °FPartly sunny.6 mph73%30.07 "HgN/A
10:00 AM59 °FScattered clouds.3 mph82%30.07 "HgN/A
9:30 AM57 °FBroken clouds.3 mph94%30.07 "HgN/A
9:00 AM57 °FBroken clouds.No wind94%30.07 "HgN/A
8:00 AM55 °FPassing clouds.No wind94%30.04 "HgN/A
7:30 AM54 °FPartly cloudy.No wind100%30.04 "HgN/A
7:00 AM54 °FPartly cloudy.2 mph94%30.04 "HgN/A
6:30 AM54 °FPassing clouds.No wind94%30.04 "HgN/A
6:00 AM54 °FPassing clouds.No wind94%30.04 "HgN/A
5:30 AM54 °FPartly cloudy.No wind94%30.04 "HgN/A
5:00 AM54 °FClear.2 mph94%30.04 "Hg10 mi
4:30 AM54 °FClear.1 mph94%30.04 "HgN/A
4:00 AM54 °FOvercast.No wind94%30.04 "HgN/A
3:30 AM52 °FPassing clouds.No wind94%30.04 "HgN/A
2:30 AM54 °FClear.3 mph94%30.04 "HgN/A
2:00 AM54 °FClear.3 mph88%30.07 "Hg10 mi
1:30 AM54 °FClear.5 mph94%30.04 "Hg10 mi
1:00 AM54 °FClear.5 mph94%30.04 "Hg10 mi
12:30 AM54 °FClear.3 mph94%30.04 "Hg10 mi
12:00 AM55 °FClear.5 mph88%30.04 "Hg10 mi
11:30 PM
Aug 22
55 °FClear.5 mph94%30.04 "Hg10 mi
11:00 PM57 °FClear.5 mph82%30.04 "Hg10 mi
10:30 PM59 °FClear.7 mph77%30.04 "Hg10 mi
10:00 PM61 °FSunny.8 mph77%30.04 "Hg10 mi
9:30 PM63 °FSunny.7 mph73%30.04 "Hg10 mi
9:00 PM63 °FPartly sunny.7 mph68%30.04 "HgN/A
8:30 PM63 °FPartly sunny.9 mph68%30.04 "HgN/A
8:00 PM64 °FPartly sunny.7 mph64%30.04 "HgN/A
7:30 PM64 °FPartly sunny.10 mph64%30.01 "HgN/A
7:00 PM68 °FScattered clouds.12 mph60%30.01 "HgN/A
6:30 PM66 °FBroken clouds.12 mph64%30.04 "HgN/A
6:00 PM66 °FBroken clouds.9 mph60%30.04 "HgN/A
5:30 PM66 °FBroken clouds.12 mph64%30.04 "HgN/A
5:00 PM64 °FBroken clouds.9 mph68%30.04 "HgN/A
4:30 PM64 °FBroken clouds.9 mph68%30.04 "HgN/A
4:00 PM63 °FBroken clouds.15 mph77%30.04 "HgN/A
3:30 PM66 °FBroken clouds.14 mph60%30.04 "HgN/A
3:00 PM68 °FBroken clouds.14 mph56%30.04 "HgN/A
2:30 PM68 °FBroken clouds.13 mph56%30.04 "HgN/A
2:00 PM68 °FPartly sunny.10 mph49%30.04 "HgN/A
Weather by CustomWeather, © 2014

See weather overviewHow to use our weather pages